Time,TemperatureF,DewpointF,PressureIn,WindDirection,WindDirectionDegrees,WindSpeedMPH,WindSpeedGustMPH,Humidity,HourlyPrecipIn,Conditions,Clouds,dailyrainin,SoftwareType,DateUTC
2013-11-18 00:09:00,69.7,69.1,30.02,West,277,0.0,0.0,98,0.00,,,0.00,Weather View 32 v70,2013-11-18 05:09:00,
2013-11-18 00:19:00,69.7,69.1,30.02,West,277,0.0,0.0,98,0.00,,,0.00,Weather View 32 v70,2013-11-18 05:19:00,
2013-11-18 00:20:00,69.7,69.1,30.02,West,277,0.0,0.0,98,0.00,,,0.00,Weather View 32 v70,2013-11-18 05:20:00,
2013-11-18 00:30:00,69.8,69.2,30.02,West,277,0.0,0.0,98,0.00,,,0.00,Weather View 32 v70,2013-11-18 05:30:00,
2013-11-18 00:40:00,69.7,69.1,30.02,West,277,0.0,0.0,98,0.00,,,0.00,Weather View 32 v70,2013-11-18 05:40:00,
2013-11-18 00:50:00,69.9,69.3,30.01,West,277,0.0,0.0,98,0.00,,,0.00,Weather View 32 v70,2013-11-18 05:50:00,
2013-11-18 00:59:00,69.8,69.2,30.01,West,277,0.0,0.0,98,0.00,,,0.00,Weather View 32 v70,2013-11-18 05:59:00,
2013-11-18 01:10:00,69.3,68.7,30.01,West,277,0.0,0.0,98,0.00,,,0.00,Weather View 32 v70,2013-11-18 06:10:00,
2013-11-18 01:20:00,69.3,68.7,30.01,West,277,0.0,0.0,98,0.00,,,0.00,Weather View 32 v70,2013-11-18 06:20:00,
2013-11-18 01:30:00,69.6,69.0,30.01,West,277,0.0,0.0,98,0.00,,,0.00,Weather View 32 v70,2013-11-18 06:30:00,
2013-11-18 01:40:00,69.5,68.9,30.01,West,277,0.0,0.0,98,0.00,,,0.00,Weather View 32 v70,2013-11-18 06:40:00,
2013-11-18 01:50:00,69.7,69.1,30.01,West,277,0.0,0.0,98,0.00,,,0.00,Weather View 32 v70,2013-11-18 06:50:00,
2013-11-18 02:00:00,69.5,68.9,30.00,West,277,0.0,0.0,98,0.00,,,0.00,Weather View 32 v70,2013-11-18 07:00:00,
2013-11-18 02:10:00,69.2,68.6,30.00,West,277,0.0,0.0,98,0.00,,,0.00,Weather View 32 v70,2013-11-18 07:10:00,
2013-11-18 02:20:00,69.3,68.7,30.00,West,277,0.0,0.0,98,0.00,,,0.00,Weather View 32 v70,2013-11-18 07:20:00,
2013-11-18 02:21:00,69.3,68.7,30.00,West,277,0.0,0.0,98,0.00,,,0.00,Weather View 32 v70,2013-11-18 07:21:00,
2013-11-18 02:30:00,69.3,68.7,29.99,West,277,0.0,0.0,98,0.00,,,0.00,Weather View 32 v70,2013-11-18 07:30:00,
2013-11-18 02:39:00,69.2,68.6,29.99,West,277,0.0,0.0,98,0.00,,,0.00,Weather View 32 v70,2013-11-18 07:39:00,
2013-11-18 02:49:00,69.2,68.6,29.99,West,277,0.0,0.0,98,0.00,,,0.00,Weather View 32 v70,2013-11-18 07:49:00,
2013-11-18 02:59:00,69.2,68.6,29.99,West,277,0.0,0.0,98,0.00,,,0.00,Weather View 32 v70,2013-11-18 07:59:00,
2013-11-18 03:09:00,69.2,68.6,29.99,West,277,0.0,0.0,98,0.00,,,0.00,Weather View 32 v70,2013-11-18 08:09:00,
2013-11-18 03:19:00,69.1,68.5,29.99,West,277,0.0,0.0,98,0.00,,,0.00,Weather View 32 v70,2013-11-18 08:19:00,
2013-11-18 03:21:00,69.1,68.5,29.99,West,277,0.0,0.0,98,0.00,,,0.00,Weather View 32 v70,2013-11-18 08:21:00,
2013-11-18 03:30:00,69.0,68.4,29.98,West,277,0.0,0.0,98,0.00,,,0.00,Weather View 32 v70,2013-11-18 08:30:00,
2013-11-18 03:40:00,68.8,68.2,29.98,West,277,0.0,0.0,98,0.00,,,0.00,Weather View 32 v70,2013-11-18 08:40:00,
2013-11-18 03:50:00,68.5,67.9,29.97,West,277,0.0,0.0,98,0.00,,,0.00,Weather View 32 v70,2013-11-18 08:50:00,
2013-11-18 04:00:00,68.6,68.0,29.97,West,277,0.0,0.0,98,0.00,,,0.00,Weather View 32 v70,2013-11-18 09:00:00,
2013-11-18 04:10:00,68.4,67.8,29.96,West,277,0.0,0.0,98,0.00,,,0.00,Weather View 32 v70,2013-11-18 09:10:00,
2013-11-18 04:20:00,68.3,67.7,29.96,West,277,0.0,0.0,98,0.00,,,0.00,Weather View 32 v70,2013-11-18 09:20:00,
2013-11-18 04:22:00,68.3,67.7,29.96,West,277,0.0,0.0,98,0.00,,,0.00,Weather View 32 v70,2013-11-18 09:22:00,
2013-11-18 04:30:00,68.5,67.9,29.96,West,277,0.0,0.0,98,0.00,,,0.00,Weather View 32 v70,2013-11-18 09:30:00,
2013-11-18 04:40:00,68.5,67.9,29.97,West,277,0.0,0.0,98,0.00,,,0.00,Weather View 32 v70,2013-11-18 09:40:00,
2013-11-18 04:50:00,68.5,67.9,29.97,West,277,0.0,0.0,98,0.00,,,0.00,Weather View 32 v70,2013-11-18 09:50:00,
2013-11-18 05:00:00,68.3,67.7,29.97,West,277,0.0,0.0,98,0.00,,,0.00,Weather View 32 v70,2013-11-18 10:00:00,
2013-11-18 05:10:00,68.4,67.8,29.97,West,277,0.0,0.0,98,0.00,,,0.00,Weather View 32 v70,2013-11-18 10:10:00,
2013-11-18 05:20:00,68.3,67.7,29.97,West,277,0.0,0.0,98,0.00,,,0.00,Weather View 32 v70,2013-11-18 10:20:00,
2013-11-18 05:22:00,68.3,67.7,29.97,West,277,0.0,0.0,98,0.00,,,0.00,Weather View 32 v70,2013-11-18 10:22:00,
2013-11-18 05:30:00,68.2,67.6,29.97,West,277,0.0,0.0,98,0.00,,,0.00,Weather View 32 v70,2013-11-18 10:30:00,
2013-11-18 05:39:00,68.3,67.7,29.97,West,277,0.0,0.0,98,0.00,,,0.00,Weather View 32 v70,2013-11-18 10:39:00,
2013-11-18 05:50:00,68.0,67.4,29.97,West,277,0.0,0.0,98,0.00,,,0.00,Weather View 32 v70,2013-11-18 10:50:00,
2013-11-18 05:59:00,68.0,67.4,29.97,West,277,0.0,0.0,98,0.00,,,0.00,Weather View 32 v70,2013-11-18 10:59:00,
2013-11-18 06:09:00,67.6,67.0,29.97,West,277,0.0,0.0,98,0.00,,,0.00,Weather View 32 v70,2013-11-18 11:09:00,
2013-11-18 06:19:00,67.8,67.2,29.97,West,277,0.0,0.0,98,0.00,,,0.00,Weather View 32 v70,2013-11-18 11:19:00,
2013-11-18 06:23:00,67.8,67.2,29.97,West,277,0.0,0.0,98,0.00,,,0.00,Weather View 32 v70,2013-11-18 11:23:00,
2013-11-18 06:29:00,67.7,67.1,29.98,West,277,0.0,0.0,98,0.00,,,0.00,Weather View 32 v70,2013-11-18 11:29:00,
2013-11-18 06:39:00,67.5,66.9,29.97,West,277,0.0,0.0,98,0.00,,,0.00,Weather View 32 v70,2013-11-18 11:39:00,
2013-11-18 06:49:00,67.4,66.8,29.97,West,277,0.0,0.0,98,0.00,,,0.00,Weather View 32 v70,2013-11-18 11:49:00,
2013-11-18 06:59:00,67.4,66.8,29.96,West,277,0.0,0.0,98,0.00,,,0.00,Weather View 32 v70,2013-11-18 11:59:00,
2013-11-18 07:10:00,67.4,66.8,29.97,West,277,0.0,0.0,98,0.00,,,0.00,Weather View 32 v70,2013-11-18 12:10:00,
2013-11-18 07:20:00,67.6,67.0,29.97,West,277,0.0,0.0,98,0.00,,,0.00,Weather View 32 v70,2013-11-18 12:20:00,
2013-11-18 07:30:00,67.7,67.1,29.97,West,277,0.0,0.0,98,0.00,,,0.00,Weather View 32 v70,2013-11-18 12:30:00,
2013-11-18 07:40:00,68.0,67.4,29.98,West,277,0.0,0.0,98,0.00,,,0.00,Weather View 32 v70,2013-11-18 12:40:00,
2013-11-18 07:50:00,68.3,67.7,29.98,West,277,0.0,0.0,98,0.00,,,0.00,Weather View 32 v70,2013-11-18 12:50:00,
2013-11-18 08:00:00,69.0,68.4,29.97,West,277,0.0,0.0,98,0.00,,,0.00,Weather View 32 v70,2013-11-18 13:00:00,
2013-11-18 08:10:00,69.7,69.1,29.97,West,277,0.0,1.0,98,0.00,,,0.00,Weather View 32 v70,2013-11-18 13:10:00,
2013-11-18 08:20:00,70.2,69.6,29.97,WSW,250,0.0,2.0,98,0.00,,,0.00,Weather View 32 v70,2013-11-18 13:20:00,
2013-11-18 08:24:00,70.2,69.6,29.97,WSW,250,0.0,2.0,98,0.00,,,0.00,Weather View 32 v70,2013-11-18 13:24:00,
2013-11-18 08:30:00,70.8,70.2,29.98,SW,220,0.0,2.0,98,0.00,,,0.00,Weather View 32 v70,2013-11-18 13:30:00,
2013-11-18 08:40:00,71.1,70.5,29.98,WNW,283,0.0,3.0,98,0.00,,,0.00,Weather View 32 v70,2013-11-18 13:40:00,
2013-11-18 08:50:00,71.3,70.7,29.99,WNW,283,0.0,3.0,98,0.00,,,0.00,Weather View 32 v70,2013-11-18 13:50:00,
2013-11-18 09:00:00,71.5,70.9,29.98,SW,223,1.0,4.0,98,0.00,,,0.00,Weather View 32 v70,2013-11-18 14:00:00,
2013-11-18 09:10:00,72.1,71.2,29.98,South,169,0.0,4.0,97,0.00,,,0.00,Weather View 32 v70,2013-11-18 14:10:00,
2013-11-18 09:20:00,71.7,70.8,29.98,SSE,162,0.0,4.0,97,0.00,,,0.00,Weather View 32 v70,2013-11-18 14:20:00,
2013-11-18 09:25:00,71.7,70.8,29.98,SSE,162,0.0,4.0,97,0.00,,,0.00,Weather View 32 v70,2013-11-18 14:25:00,
2013-11-18 09:40:00,73.3,72.4,29.98,South,175,1.0,4.0,97,0.00,,,0.00,Weather View 32 v70,2013-11-18 14:40:00,
2013-11-18 09:50:00,73.6,72.4,29.98,SSE,153,4.0,4.0,96,0.00,,,0.00,Weather View 32 v70,2013-11-18 14:50:00,
2013-11-18 10:00:00,73.7,72.2,29.99,SSE,159,0.0,4.0,95,0.00,,,0.00,Weather View 32 v70,2013-11-18 15:00:00,
2013-11-18 10:10:00,74.6,73.1,29.99,SW,216,0.0,4.0,95,0.00,,,0.00,Weather View 32 v70,2013-11-18 15:10:00,
2013-11-18 10:20:00,75.4,73.2,29.99,South,180,0.0,4.0,93,0.00,,,0.00,Weather View 32 v70,2013-11-18 15:20:00,
2013-11-18 10:26:00,75.4,73.2,29.99,South,180,0.0,4.0,93,0.00,,,0.00,Weather View 32 v70,2013-11-18 15:26:00,
2013-11-18 10:30:00,75.6,73.1,29.99,SSE,153,6.0,8.0,92,0.00,,,0.00,Weather View 32 v70,2013-11-18 15:30:00,
2013-11-18 10:40:00,76.0,73.2,29.98,SSE,163,1.0,8.0,91,0.00,,,0.00,Weather View 32 v70,2013-11-18 15:40:00,
2013-11-18 10:49:00,76.5,73.7,29.98,SSE,147,0.0,8.0,91,0.00,,,0.00,Weather View 32 v70,2013-11-18 15:49:00,
2013-11-18 10:59:00,76.8,73.6,29.98,SSE,163,0.0,8.0,90,0.00,,,0.00,Weather View 32 v70,2013-11-18 15:59:00,
2013-11-18 11:10:00,77.0,73.8,29.98,SSW,209,0.0,8.0,90,0.00,,,0.00,Weather View 32 v70,2013-11-18 16:10:00,
2013-11-18 11:20:00,77.1,73.6,29.98,SSE,165,1.0,8.0,89,0.00,,,0.00,Weather View 32 v70,2013-11-18 16:20:00,
2013-11-18 11:26:00,77.1,73.6,29.98,SSE,165,1.0,8.0,89,0.00,,,0.00,Weather View 32 v70,2013-11-18 16:26:00,
2013-11-18 11:30:00,77.1,73.9,29.98,WNW,289,2.0,8.0,90,0.00,,,0.00,Weather View 32 v70,2013-11-18 16:30:00,
2013-11-18 11:40:00,76.8,73.6,29.99,WSW,241,0.0,5.0,90,0.00,,,0.00,Weather View 32 v70,2013-11-18 16:40:00,
2013-11-18 11:50:00,76.4,73.6,29.98,WSW,254,0.0,8.0,91,0.00,,,0.00,Weather View 32 v70,2013-11-18 16:50:00,
2013-11-18 12:00:00,76.1,73.3,29.98,West,271,2.0,8.0,91,0.00,,,0.00,Weather View 32 v70,2013-11-18 17:00:00,
2013-11-18 12:10:00,75.9,73.1,29.97,WSW,254,4.0,8.0,91,0.00,,,0.00,Weather View 32 v70,2013-11-18 17:10:00,
2013-11-18 12:20:00,76.0,73.5,29.97,SSW,198,2.0,8.0,92,0.00,,,0.00,Weather View 32 v70,2013-11-18 17:20:00,
2013-11-18 12:27:00,76.0,73.5,29.97,SSW,198,2.0,8.0,92,0.00,,,0.00,Weather View 32 v70,2013-11-18 17:27:00,
2013-11-18 12:40:00,76.2,73.4,29.95,North,5,0.0,8.0,91,0.00,,,0.00,Weather View 32 v70,2013-11-18 17:40:00,
2013-11-18 12:50:00,76.2,73.0,29.95,North,0,0.0,6.0,90,0.00,,,0.00,Weather View 32 v70,2013-11-18 17:50:00,
2013-11-18 13:00:00,76.2,73.0,29.95,WSW,241,0.0,6.0,90,0.00,,,0.00,Weather View 32 v70,2013-11-18 18:00:00,
2013-11-18 13:10:00,75.9,72.7,29.95,SW,232,0.0,6.0,90,0.00,,,0.00,Weather View 32 v70,2013-11-18 18:10:00,
2013-11-18 13:20:00,75.6,72.8,29.95,South,177,1.0,7.0,91,0.00,,,0.00,Weather View 32 v70,2013-11-18 18:20:00,
2013-11-18 13:28:00,75.6,72.8,29.95,South,177,1.0,7.0,91,0.00,,,0.00,Weather View 32 v70,2013-11-18 18:28:00,
2013-11-18 13:30:00,75.6,73.1,29.95,WNW,294,0.0,7.0,92,0.00,,,0.00,Weather View 32 v70,2013-11-18 18:30:00,
2013-11-18 13:40:00,75.5,73.0,29.95,SSW,207,0.0,7.0,92,0.00,,,0.00,Weather View 32 v70,2013-11-18 18:40:00,
2013-11-18 13:50:00,75.5,73.0,29.94,South,186,0.0,7.0,92,0.00,,,0.00,Weather View 32 v70,2013-11-18 18:50:00,
2013-11-18 14:00:00,75.5,73.0,29.94,SW,231,0.0,7.0,92,0.00,,,0.00,Weather View 32 v70,2013-11-18 19:00:00,
2013-11-18 14:10:00,75.5,73.0,29.94,SW,215,0.0,7.0,92,0.00,,,0.00,Weather View 32 v70,2013-11-18 19:10:00,
2013-11-18 14:20:00,75.6,73.1,29.94,SSE,148,0.0,5.0,92,0.00,,,0.00,Weather View 32 v70,2013-11-18 19:20:00,
2013-11-18 14:28:00,75.6,73.1,29.94,SSE,148,0.0,5.0,92,0.00,,,0.00,Weather View 32 v70,2013-11-18 19:28:00,
2013-11-18 14:29:00,75.5,73.0,29.93,WSW,254,0.0,3.0,92,0.00,,,0.00,Weather View 32 v70,2013-11-18 19:29:00,
2013-11-18 14:39:00,75.2,73.0,29.92,SSW,211,0.0,2.0,93,0.00,,,0.00,Weather View 32 v70,2013-11-18 19:39:00,
2013-11-18 14:50:00,75.1,73.2,29.93,SW,223,0.0,2.0,94,0.00,,,0.00,Weather View 32 v70,2013-11-18 19:50:00,
2013-11-18 15:00:00,75.1,73.2,29.93,SW,217,0.0,3.0,94,0.00,,,0.00,Weather View 32 v70,2013-11-18 20:00:00,
2013-11-18 15:10:00,75.1,72.9,29.92,WSW,254,0.0,3.0,93,0.00,,,0.00,Weather View 32 v70,2013-11-18 20:10:00,
2013-11-18 15:20:00,75.1,72.9,29.93,West,277,0.0,3.0,93,0.00,,,0.00,Weather View 32 v70,2013-11-18 20:20:00,
2013-11-18 15:29:00,75.1,72.9,29.93,West,277,0.0,3.0,93,0.00,,,0.00,Weather View 32 v70,2013-11-18 20:29:00,
2013-11-18 15:30:00,75.0,72.8,29.92,SW,233,0.0,3.0,93,0.00,,,0.00,Weather View 32 v70,2013-11-18 20:30:00,
2013-11-18 15:40:00,74.8,72.9,29.93,West,276,0.0,3.0,94,0.00,,,0.00,Weather View 32 v70,2013-11-18 20:40:00,
2013-11-18 15:50:00,74.7,72.8,29.93,West,273,0.0,3.0,94,0.00,,,0.00,Weather View 32 v70,2013-11-18 20:50:00,
2013-11-18 16:00:00,74.6,72.8,29.93,West,273,0.0,3.0,94,0.00,,,0.00,Weather View 32 v70,2013-11-18 21:00:00,
2013-11-18 16:10:00,74.3,72.8,29.93,West,273,0.0,3.0,95,0.01,,,0.01,Weather View 32 v70,2013-11-18 21:10:00,
2013-11-18 16:20:00,74.1,72.6,29.93,West,273,0.0,3.0,95,0.02,,,0.02,Weather View 32 v70,2013-11-18 21:20:00,
2013-11-18 16:29:00,74.1,72.6,29.93,West,273,0.0,3.0,95,0.02,,,0.02,Weather View 32 v70,2013-11-18 21:29:00,
2013-11-18 16:30:00,74.0,72.8,29.93,West,273,0.0,2.0,96,0.03,,,0.03,Weather View 32 v70,2013-11-18 21:30:00,
2013-11-18 16:40:00,73.9,72.7,29.93,West,273,0.0,2.0,96,0.03,,,0.03,Weather View 32 v70,2013-11-18 21:40:00,
2013-11-18 16:50:00,73.8,72.6,29.92,West,273,0.0,2.0,96,0.03,,,0.03,Weather View 32 v70,2013-11-18 21:50:00,
2013-11-18 17:00:00,73.6,72.7,29.92,West,273,0.0,2.0,97,0.03,,,0.03,Weather View 32 v70,2013-11-18 22:00:00,
2013-11-18 17:09:00,73.5,72.6,29.92,West,273,0.0,2.0,97,0.02,,,0.03,Weather View 32 v70,2013-11-18 22:09:00,
2013-11-18 17:19:00,73.3,72.4,29.92,West,273,0.0,2.0,97,0.01,,,0.03,Weather View 32 v70,2013-11-18 22:19:00,
2013-11-18 17:30:00,73.1,72.2,29.92,West,273,0.0,2.0,97,0.00,,,0.03,Weather View 32 v70,2013-11-18 22:30:00,
2013-11-18 17:40:00,72.8,71.9,29.91,West,273,0.0,0.0,97,0.00,,,0.03,Weather View 32 v70,2013-11-18 22:40:00,
2013-11-18 17:50:00,72.8,71.9,29.91,West,273,0.0,0.0,97,0.00,,,0.03,Weather View 32 v70,2013-11-18 22:50:00,
2013-11-18 18:00:00,72.6,71.7,29.91,West,273,0.0,0.0,97,0.00,,,0.03,Weather View 32 v70,2013-11-18 23:00:00,
2013-11-18 18:10:00,72.4,71.5,29.91,West,273,0.0,0.0,97,0.00,,,0.03,Weather View 32 v70,2013-11-18 23:10:00,
2013-11-18 18:20:00,72.4,71.8,29.91,WSW,242,0.0,1.0,98,0.00,,,0.03,Weather View 32 v70,2013-11-18 23:20:00,
2013-11-18 18:30:00,72.4,71.8,29.91,WSW,239,0.0,1.0,98,0.00,,,0.03,Weather View 32 v70,2013-11-18 23:30:00,
2013-11-18 18:40:00,72.4,71.8,29.91,WSW,238,0.0,1.0,98,0.00,,,0.03,Weather View 32 v70,2013-11-18 23:40:00,
2013-11-18 18:50:00,72.5,71.9,29.91,South,184,0.0,5.0,98,0.00,,,0.03,Weather View 32 v70,2013-11-18 23:50:00,
2013-11-18 19:00:00,72.5,71.9,29.91,South,169,1.0,5.0,98,0.00,,,0.03,Weather View 32 v70,2013-11-19 00:00:00,
2013-11-18 19:10:00,72.4,71.8,29.91,South,169,0.0,5.0,98,0.00,,,0.03,Weather View 32 v70,2013-11-19 00:10:00,
2013-11-18 19:20:00,72.3,71.4,29.91,South,169,0.0,5.0,97,0.00,,,0.03,Weather View 32 v70,2013-11-19 00:20:00,
2013-11-18 19:30:00,72.2,71.3,29.91,SSE,165,0.0,5.0,97,0.00,,,0.03,Weather View 32 v70,2013-11-19 00:30:00,
2013-11-18 19:31:00,72.2,71.3,29.91,SSE,165,0.0,5.0,97,0.00,,,0.03,Weather View 32 v70,2013-11-19 00:31:00,
2013-11-18 19:40:00,72.1,71.2,29.91,SSE,165,0.0,5.0,97,0.00,,,0.03,Weather View 32 v70,2013-11-19 00:40:00,
2013-11-18 19:50:00,72.0,71.1,29.90,SSE,165,0.0,3.0,97,0.00,,,0.03,Weather View 32 v70,2013-11-19 00:50:00,
2013-11-18 20:00:00,72.0,71.4,29.90,SSE,166,0.0,3.0,98,0.00,,,0.03,Weather View 32 v70,2013-11-19 01:00:00,
2013-11-18 20:10:00,71.9,71.3,29.90,SSE,163,0.0,3.0,98,0.00,,,0.03,Weather View 32 v70,2013-11-19 01:10:00,
2013-11-18 20:20:00,71.8,71.2,29.90,SSE,163,0.0,3.0,98,0.00,,,0.03,Weather View 32 v70,2013-11-19 01:20:00,
2013-11-18 20:30:00,71.6,70.7,29.90,SSE,163,0.0,3.0,97,0.00,,,0.03,Weather View 32 v70,2013-11-19 01:30:00,
2013-11-18 20:40:00,71.5,70.6,29.91,SSE,163,0.0,3.0,97,0.00,,,0.03,Weather View 32 v70,2013-11-19 01:40:00,
2013-11-18 20:50:00,71.4,70.8,29.91,SSE,163,0.0,2.0,98,0.00,,,0.03,Weather View 32 v70,2013-11-19 01:50:00,
2013-11-18 21:00:00,71.4,70.8,29.91,SSE,163,0.0,2.0,98,0.00,,,0.03,Weather View 32 v70,2013-11-19 02:00:00,
2013-11-18 21:10:00,71.3,70.7,29.91,SSE,163,0.0,1.0,98,0.00,,,0.03,Weather View 32 v70,2013-11-19 02:10:00,
2013-11-18 21:20:00,71.2,70.6,29.91,SSE,163,0.0,0.0,98,0.00,,,0.03,Weather View 32 v70,2013-11-19 02:20:00,
2013-11-18 21:30:00,71.2,70.6,29.91,SSE,163,0.0,0.0,98,0.00,,,0.03,Weather View 32 v70,2013-11-19 02:30:00,
2013-11-18 21:32:00,71.2,70.6,29.91,SSE,163,0.0,0.0,98,0.00,,,0.03,Weather View 32 v70,2013-11-19 02:32:00,
2013-11-18 21:40:00,71.0,70.4,29.91,SSW,203,0.0,2.0,98,0.00,,,0.03,Weather View 32 v70,2013-11-19 02:40:00,
2013-11-18 21:50:00,70.9,70.3,29.92,West,271,0.0,2.0,98,0.00,,,0.03,Weather View 32 v70,2013-11-19 02:50:00,
2013-11-18 22:00:00,70.8,70.2,29.92,WNW,293,0.0,3.0,98,0.00,,,0.03,Weather View 32 v70,2013-11-19 03:00:00,
2013-11-18 22:10:00,70.7,70.1,29.92,WNW,293,0.0,3.0,98,0.00,,,0.03,Weather View 32 v70,2013-11-19 03:10:00,
2013-11-18 22:20:00,70.6,70.0,29.92,West,263,0.0,3.0,98,0.00,,,0.03,Weather View 32 v70,2013-11-19 03:20:00,
2013-11-18 22:30:00,70.6,70.0,29.92,WNW,284,0.0,3.0,98,0.00,,,0.03,Weather View 32 v70,2013-11-19 03:30:00,
2013-11-18 22:33:00,70.6,70.0,29.92,WNW,284,0.0,3.0,98,0.00,,,0.03,Weather View 32 v70,2013-11-19 03:33:00,
2013-11-18 22:40:00,70.6,70.0,29.92,West,274,0.0,5.0,98,0.00,,,0.03,Weather View 32 v70,2013-11-19 03:40:00,
2013-11-18 22:50:00,70.6,70.0,29.92,West,277,0.0,5.0,98,0.00,,,0.03,Weather View 32 v70,2013-11-19 03:50:00,
2013-11-18 23:00:00,70.5,69.9,29.92,WNW,282,1.0,5.0,98,0.00,,,0.03,Weather View 32 v70,2013-11-19 04:00:00,
2013-11-18 23:10:00,70.5,69.9,29.92,WNW,285,0.0,7.0,98,0.00,,,0.03,Weather View 32 v70,2013-11-19 04:10:00,
2013-11-18 23:20:00,70.4,69.8,29.92,West,281,0.0,7.0,98,0.00,,,0.03,Weather View 32 v70,2013-11-19 04:20:00,
2013-11-18 23:30:00,70.5,69.9,29.92,West,276,0.0,7.0,98,0.00,,,0.03,Weather View 32 v70,2013-11-19 04:30:00,
2013-11-18 23:33:00,70.5,69.9,29.92,West,276,0.0,7.0,98,0.00,,,0.03,Weather View 32 v70,2013-11-19 04:33:00,
2013-11-18 23:40:00,70.5,69.9,29.92,West,275,0.0,7.0,98,0.00,,,0.03,Weather View 32 v70,2013-11-19 04:40:00,
2013-11-18 23:50:00,70.5,69.9,29.92,West,272,0.0,7.0,98,0.00,,,0.03,Weather View 32 v70,2013-11-19 04:50:00,